Hourly Weather Ludgierzowice

Today, 17 June, Thursday

Time Temperature Precipitation Wind Pressure Humidity
00:00 +18°C° 0 mm 3 mps 746 mmHg 87%
01:00 +17°C° 0 mm 3 mps 746 mmHg 89%
02:00 +17°C° 0 mm 3 mps 746 mmHg 89%
03:00 +17°C° 0 mm 3 mps 745 mmHg 89%
04:00 +17°C° 0 mm 3 mps 745 mmHg 89%
05:00 +18°C° 0 mm 3 mps 745 mmHg 83%
06:00 +20°C° 0 mm 3 mps 746 mmHg 77%
07:00 +22°C° 0 mm 3 mps 746 mmHg 70%
08:00 +23°C° 0 mm 4 mps 746 mmHg 64%
09:00 +26°C° 0 mm 4 mps 746 mmHg 58%
10:00 +27°C° 0 mm 4 mps 747 mmHg 52%
11:00 +28°C° 0 mm 4 mps 746 mmHg 50%
12:00 +29°C° 0 mm 4 mps 746 mmHg 47%
13:00 +29°C° 0 mm 4 mps 746 mmHg 45%
14:00 +29°C° 0 mm 4 mps 746 mmHg 46%
15:00 +29°C° 0 mm 4 mps 746 mmHg 47%
16:00 +29°C° 0 mm 4 mps 746 mmHg 48%
17:00 +28°C° 0 mm 4 mps 745 mmHg 55%
18:00 +26°C° 0 mm 4 mps 745 mmHg 62%
19:00 +25°C° 0 mm 4 mps 745 mmHg 68%
20:00 +23°C° 0 mm 4 mps 746 mmHg 69%
21:00 +21°C° 0 mm 4 mps 746 mmHg 70%
22:00 +20°C° 0 mm 4 mps 746 mmHg 70%
23:00 +19°C° 0 mm 4 mps 746 mmHg 73%

Tomorrow, 18 June, Friday

Time Temperature Precipitation Wind Pressure Humidity
00:00 +19°C° 0 mm 4 mps 746 mmHg 75%
01:00 +18°C° 0 mm 3 mps 746 mmHg 78%
02:00 +17°C° 0 mm 3 mps 746 mmHg 79%
03:00 +17°C° 0 mm 3 mps 746 mmHg 80%
04:00 +16°C° 0 mm 3 mps 746 mmHg 82%
05:00 +18°C° 0 mm 3 mps 746 mmHg 77%
06:00 +19°C° 0 mm 3 mps 746 mmHg 73%
07:00 +21°C° 0 mm 3 mps 746 mmHg 68%
08:00 +24°C° 0 mm 3 mps 746 mmHg 63%
09:00 +26°C° 0 mm 3 mps 746 mmHg 59%
10:00 +28°C° 0 mm 3 mps 746 mmHg 54%
11:00 +29°C° 0 mm 3 mps 745 mmHg 51%
12:00 +30°C° 0 mm 3 mps 745 mmHg 48%
13:00 +31°C° 0 mm 3 mps 745 mmHg 45%
14:00 +31°C° 0 mm 3 mps 745 mmHg 45%
15:00 +31°C° 0 mm 3 mps 744 mmHg 45%
16:00 +31°C° 0 mm 3 mps 744 mmHg 45%
17:00 +29°C° 0 mm 3 mps 744 mmHg 52%
18:00 +28°C° 0 mm 4 mps 744 mmHg 60%
19:00 +26°C° 0 mm 4 mps 744 mmHg 67%
20:00 +25°C° 0 mm 4 mps 744 mmHg 70%
21:00 +23°C° 0 mm 4 mps 744 mmHg 72%
22:00 +21°C° 0 mm 4 mps 745 mmHg 75%
23:00 +21°C° 0 mm 3 mps 745 mmHg 79%

Day after tomorrow, 19 June, Saturday

Time Temperature Precipitation Wind Pressure Humidity
00:00 +20°C° 0 mm 3 mps 744 mmHg 82%
01:00 +19°C° 0 mm 3 mps 744 mmHg 86%
02:00 +19°C° 0 mm 3 mps 744 mmHg 88%
03:00 +18°C° 0 mm 3 mps 744 mmHg 90%
04:00 +18°C° 0 mm 3 mps 744 mmHg 92%
05:00 +20°C° 0 mm 3 mps 744 mmHg 86%
06:00 +22°C° 0 mm 3 mps 744 mmHg 80%
07:00 +24°C° 0 mm 3 mps 745 mmHg 73%
08:00 +26°C° 0 mm 3 mps 744 mmHg 68%
09:00 +27°C° 0 mm 3 mps 744 mmHg 62%
10:00 +29°C° 0 mm 3 mps 744 mmHg 57%
11:00 +30°C° 0 mm 3 mps 744 mmHg 53%
12:00 +31°C° 0 mm 3 mps 744 mmHg 50%
13:00 +32°C° 0 mm 2 mps 744 mmHg 46%
14:00 +32°C° 0 mm 2 mps 744 mmHg 45%
15:00 +32°C° 0 mm 2 mps 743 mmHg 45%
16:00 +32°C° 0 mm 2 mps 743 mmHg 44%
17:00 +30°C° 0 mm 2 mps 743 mmHg 52%
18:00 +29°C° 0 mm 3 mps 743 mmHg 59%
19:00 +27°C° 0 mm 3 mps 743 mmHg 67%
20:00 +26°C° 0 mm 3 mps 743 mmHg 69%
21:00 +24°C° 0 mm 3 mps 743 mmHg 72%
22:00 +22°C° 0 mm 3 mps 743 mmHg 74%
23:00 +21°C° 0 mm 3 mps 743 mmHg 78%

20 June, Sunday

Time Temperature Precipitation Wind Pressure Humidity
00:00 +20°C° 0 mm 3 mps 743 mmHg 82%
01:00 +20°C° 0 mm 3 mps 743 mmHg 85%
02:00 +19°C° 0 mm 3 mps 743 mmHg 87%
03:00 +19°C° 0 mm 3 mps 743 mmHg 88%
04:00 +18°C° 0 mm 3 mps 743 mmHg 89%
05:00 +20°C° 0 mm 3 mps 743 mmHg 83%
06:00 +21°C° 0 mm 4 mps 743 mmHg 76%
07:00 +22°C° 0 mm 4 mps 743 mmHg 70%
08:00 +25°C° 0 mm 4 mps 743 mmHg 64%
09:00 +26°C° 0 mm 4 mps 742 mmHg 59%
10:00 +28°C° 0 mm 5 mps 742 mmHg 53%
11:00 +29°C° 0 mm 5 mps 742 mmHg 50%
12:00 +30°C° 0 mm 5 mps 741 mmHg 47%
13:00 +32°C° 0 mm 5 mps 741 mmHg 44%
14:00 +32°C° 0 mm 5 mps 741 mmHg 45%
15:00 +32°C° 0 mm 5 mps 740 mmHg 46%
16:00 +32°C° 0 mm 5 mps 740 mmHg 46%
17:00 +29°C° 0 mm 5 mps 740 mmHg 53%
18:00 +28°C° 0 mm 5 mps 740 mmHg 59%
19:00 +26°C° 0 mm 4 mps 739 mmHg 66%
20:00 +25°C° 0 mm 4 mps 739 mmHg 69%
21:00 +23°C° 0 mm 4 mps 739 mmHg 72%
22:00 +22°C° 0 mm 4 mps 739 mmHg 75%
23:00 +21°C° 0 mm 4 mps 739 mmHg 79%

21 June, Monday

Time Temperature Precipitation Wind Pressure Humidity
00:00 +21°C° 0 mm 3 mps 739 mmHg 83%
01:00 +20°C° 0 mm 3 mps 739 mmHg 87%
02:00 +20°C° 0 mm 3 mps 739 mmHg 88%
03:00 +19°C° 0 mm 2 mps 738 mmHg 89%
04:00 +19°C° 0 mm 2 mps 738 mmHg 89%
05:00 +21°C° 0 mm 2 mps 738 mmHg 82%
06:00 +24°C° 0 mm 3 mps 738 mmHg 76%
07:00 +25°C° 0 mm 3 mps 739 mmHg 69%
08:00 +27°C° 0 mm 3 mps 739 mmHg 63%
09:00 +28°C° 0 mm 2 mps 739 mmHg 57%
10:00 +30°C° 0 mm 2 mps 739 mmHg 51%
11:00 +30°C° 0 mm 2 mps 739 mmHg 50%
12:00 +31°C° 0 mm 2 mps 738 mmHg 49%
13:00 +31°C° 0 mm 1 mps 738 mmHg 48%
14:00 +31°C° 0 mm 2 mps 738 mmHg 51%
15:00 +30°C° 0 mm 2 mps 738 mmHg 53%
16:00 +30°C° 0 mm 3 mps 738 mmHg 55%
17:00 +28°C° 0.1 mm 3 mps 738 mmHg 60%
18:00 +27°C° 0.1 mm 3 mps 738 mmHg 65%
19:00 +26°C° 0.1 mm 2 mps 737 mmHg 70%
20:00 +25°C° 0.2 mm 2 mps 737 mmHg 72%
21:00 +24°C° 0.2 mm 2 mps 737 mmHg 74%
22:00 +23°C° 0.2 mm 1 mps 737 mmHg 76%
23:00 +23°C° 0.2 mm 2 mps 737 mmHg 79%

22 June, Tuesday

Time Temperature Precipitation Wind Pressure Humidity
00:00 +21°C° 0.2 mm 2 mps 737 mmHg 81%
01:00 +21°C° 0.2 mm 2 mps 737 mmHg 84%
02:00 +20°C° 0.5 mm 2 mps 737 mmHg 87%
03:00 +20°C° 0.5 mm 2 mps 737 mmHg 90%
04:00 +19°C° 0.5 mm 2 mps 737 mmHg 93%
05:00 +19°C° 0.9 mm 3 mps 737 mmHg 93%
06:00 +20°C° 0.9 mm 4 mps 738 mmHg 92%
07:00 +20°C° 0.9 mm 4 mps 738 mmHg 91%
08:00 +21°C° 0.2 mm 5 mps 739 mmHg 87%
09:00 +21°C° 0.2 mm 5 mps 739 mmHg 83%
10:00 +22°C° 0.2 mm 6 mps 740 mmHg 79%
11:00 +23°C° 0 mm 5 mps 740 mmHg 72%
12:00 +25°C° 0 mm 5 mps 740 mmHg 66%
13:00 +26°C° 0 mm 5 mps 740 mmHg 59%
14:00 +27°C° 0 mm 5 mps 740 mmHg 57%
15:00 +27°C° 0 mm 5 mps 741 mmHg 54%
16:00 +27°C° 0 mm 5 mps 741 mmHg 52%
17:00 +26°C° 0 mm 5 mps 741 mmHg 58%
18:00 +25°C° 0 mm 4 mps 741 mmHg 64%
19:00 +22°C° 0 mm 4 mps 742 mmHg 70%
20:00 +21°C° 0 mm 3 mps 742 mmHg 75%
21:00 +20°C° 0 mm 3 mps 742 mmHg 80%
22:00 +18°C° 0 mm 3 mps 743 mmHg 84%
23:00 +17°C° 0 mm 2 mps 743 mmHg 88%
Show more

We Need Your Consent

Meteoprog and our Service Providers may store and access personal data such as cookies, device identifiers or other similar technologies on your device and process such data to personalise content and ads, as well as provide social media features and to analyse the traffic.

  • Store and/or access information on your device

    Cookies, device identifiers or other information can be stored or accessed on your device for the purposes indicated above.

  • Personalised ads and content, ad and content measurement, audience insights, and products development

    Ads and content can be personalised based on a profile. More data can be added to better personalise ads and content. Ad and content performance can be measured. Insights about the audience who saw the ads and content can be derived. Such data can be used to develop or improve user’s experience, systems and software.

By clicking ‘I Agree’ you will allow the use of indicated cookies, device identifiers, web beacons or other similar technologies. Your settings can be changed in the browser on your device.

For certain purposes, legitimate interests may be relied on, rather than consent. You can read more about this in our Privacy and Cookie Policy.